Regional Weather Roundup
Issued by NWS

Home | Current Version | Previous Version | Graphics & Text | Print | Product List | Glossary Off
Versions: 1 2 3 4 5 6 7 8 9 10 11 12 13 14 15 16 17 18 19 20 21 22 23 24 25 26 27 28 29 30 31 32 33 34 35 36 37 38 39 40 41 42 43 44 45 46 47 48 49 50

000
ASUS43 KTOP 261508
RWRKS

WEATHER ROUNDUP FOR KANSAS
NATIONAL WEATHER SERVICE GOODLAND KS
1000 AM CDT THU MAR 26 2015

NOTE:  "FAIR" INDICATES FEW OR NO CLOUDS BELOW 12,000 FEET WITH NO
SIGNIFICANT WEATHER AND/OR OBSTRUCTIONS TO VISIBILITY.

KSZ001>006-013>018-027>032-041>047-261600-
NORTHWEST KANSAS

CITY           SKY/WX    TMP DP  RH WIND       PRES   REMARKS
GOODLAND       SUNNY     43  35  73 W8        30.20S
HAYS           MOSUNNY   37  23  56 CALM      30.26F
HILL CITY      FAIR      34  27  75 SW6       30.25F
RUSSELL        SUNNY     38  31  76 W3        30.25F
$$

KSZ061>065-074>080-084>089-261600-
SOUTHWEST KANSAS

CITY           SKY/WX    TMP DP  RH WIND       PRES   REMARKS
DODGE CITY     SUNNY     40  31  70 VRB5      30.27S
ELKHART          N/A     41  34  76 W7          N/A
GARDEN CITY    SUNNY     37  33  85 CALM      30.25F
GREAT BEND     SUNNY     37  28  70 NW5       30.28S
LIBERAL        SUNNY     39  34  81 NW6       30.30R
PRATT          SUNNY     39  30  70 N9        30.28R
$$

KSZ066>073-081>083-090>101-261600-
SOUTHEAST KANSAS

CITY           SKY/WX    TMP DP  RH WIND       PRES   REMARKS
CHANUTE        SUNNY     43  33  68 N13       30.22R
COFFEYVILLE    SUNNY     45  34  65 N18       30.20S
HUTCHINSON     SUNNY     42  28  57 N6        30.27R
MEDICINE LODGE   N/A     42  29  59 N13       30.28R
NEWTON         SUNNY     37  27  65 N10       30.27R WCI  30
WICHITA INTL   MOSUNNY   42  29  59 N10       30.26S
WICHITA JABRA  SUNNY     41  30  65 N9        30.25R
WICHITA MCCONL SUNNY     42  29  61 N12       30.25R
WINFIELD       SUNNY     44  31  60 N12       30.26R
$$

KSZ007>012-019>026-033>040-048>060-102>105-261600-
NORTHEAST KANSAS

CITY           SKY/WX    TMP DP  RH WIND       PRES   REMARKS
CONCORDIA      SUNNY     36  27  69 NW3       30.26F
EMPORIA        SUNNY     40  29  64 N10       30.23S WCI  33
LAWRENCE       SUNNY     40  29  64 N8        30.24S
MANHATTAN      SUNNY     38  30  73 NE5       30.27R
MARYSVILLE     SUNNY     36  30  80 NW3       30.25S
OLATHE IND     SUNNY     39  29  67 N13       30.22F WCI  31
OLATHE EXE     SUNNY     40  25  55 N13       30.21S WCI  32
SALINA         SUNNY     40  29  64 N9        30.28S
TOPEKA BILLARD SUNNY     40  30  67 N7        30.25F
TOPEKA FORBES  SUNNY     40  29  64 NE6       30.23F
$$


USA.gov is the U.S. government's official web portal to all federal, state and local government web resources and services.